Location: Il Ritiro
(43.4167°N, 13.1333°E)
Time: 01:17:15
(UTC+00:00)

SL-16 R/B - Pass Details

Date: 05 July 2020
Orbit: 839 x 850 km, 71.0° (Epoch: 11 August)

Event Time Altitude Azimuth Distance (km) Brightness Sun altitude
Exits shadow 23:00:42 45° 228° (SW) 1,138 2.6 -23.9°
Maximum altitude 23:02:25 70° 296° (WNW) 898 2.3 -23.9°
Drops below altitude 10° 23:08:06 10° 21° (NNE) 2,479 5.5 -23.9°
Sets 23:10:35 0° 24° (NNE) 3,420 6.4 -23.9°
